Location: Gudip?du
(17.0263°N, 80.8301°E)
Time: 12:22:21
(UTC+00:00)

GEOS 3 Rocket - Pass Details

Date: 03 August 2024
Orbit: 788 x 827 km, 115.0° (Epoch: 11 September)

Event Time Altitude Azimuth Distance (km) Brightness Sun altitude
Rises 23:30:53 0° 32° (NNE) 3,278 7.7 -11.3°
Reaches altitude 10° 23:33:11 10° 34° (NE) 2,346 6.9 -10.8°
Maximum altitude 23:38:14 73° 119° (ESE) 822 3.8 -9.7°
Drops below altitude 10° 23:43:18 10° 203° (SSW) 2,341 5.6 -8.5°
Sets 23:45:34 0° 205° (SSW) 3,271 6.3 -8.0°
